This is the latest recevied weather packets stored in our database for station/object KD7JB. If no packets are shown the sender has not sent any weather packets the latest 10 day(s).
| Time | Temp. | Humidity | Pressure | Rain* | Wind** | Luminosity | Snow |
|---|---|---|---|---|---|---|---|
| 1777840825 | 20.56° C | 36% | 1176.7 hPa | 0 mm | - | 688 W/m² | - |
| 1777840523 | 20.56° C | 35% | 1176.6 hPa | 0 mm | - | 734 W/m² | - |
| 1777840220 | 20.56° C | 37% | 1176.6 hPa | 0 mm | - | 738 W/m² | - |
| 1777839917 | 20° C | 37% | 1176.5 hPa | 0 mm | - | 739 W/m² | - |
| 1777839615 | 20.56° C | 37% | 1176.9 hPa | 0 mm | - | 742 W/m² | - |
| 1777839313 | 21.11° C | 36% | 1176.7 hPa | 0 mm | - | 746 W/m² | - |
| 1777839010 | 20.56° C | 36% | 1176.9 hPa | 0 mm | - | 748 W/m² | - |
| 1777838706 | 19.44° C | 40% | 1177 hPa | 0 mm | - | 748 W/m² | - |
| 1777838403 | 19.44° C | 35% | 1176.9 hPa | 0 mm | - | 749 W/m² | - |
| 1777838100 | 20.56° C | 34% | 1176.9 hPa | 0 mm | - | 748 W/m² | - |
| 1777837796 | 20° C | 33% | 1177 hPa | 0 mm | - | 748 W/m² | - |
| 1777837494 | 19.44° C | 35% | 1177.1 hPa | 0 mm | - | 751 W/m² | - |
| 1777837189 | 19.44° C | 34% | 1177.3 hPa | 0 mm | - | 749 W/m² | - |
| 1777836885 | 19.44° C | 34% | 1177.1 hPa | 0 mm | - | 748 W/m² | - |
| 1777836580 | 20.56° C | 34% | 1177.3 hPa | 0 mm | - | 763 W/m² | - |
| 1777836277 | 19.44° C | 35% | 1177.4 hPa | 0 mm | - | 748 W/m² | - |
| 1777835973 | 20° C | 35% | 1177.4 hPa | 0 mm | - | 748 W/m² | - |
| 1777835671 | 20.56° C | 36% | 1177.3 hPa | 0 mm | - | 743 W/m² | - |
| 1777835367 | 20° C | 39% | 1177.2 hPa | 0 mm | - | 742 W/m² | - |
| 1777835064 | 18.89° C | 35% | 1177.5 hPa | 0 mm | - | 740 W/m² | - |
| 1777834761 | 19.44° C | 35% | 1177.4 hPa | 0 mm | - | 735 W/m² | - |
| 1777834458 | 19.44° C | 34% | 1177.6 hPa | 0 mm | - | 731 W/m² | - |
| 1777834156 | 20° C | 38% | 1177.5 hPa | 0 mm | - | 727 W/m² | - |
| 1777833854 | 19.44° C | 36% | 1177.5 hPa | 0 mm | - | 723 W/m² | - |
| 1777833550 | 20° C | 36% | 1177.5 hPa | 0 mm | - | 718 W/m² | - |
* Rain latest hour (hover to see other rain measurements)
** Current wind speed in m/s (hover to see current wind gust speed)